Cleveland, OH

9:11 PM EDT on May 26, 2017 (GMT -0400)
Cleveland-Hopkins International

Weather History for KCLE - December, 2014

Change the Weather History Date:

Thursday, December 25, 2014

  Actual Average Record
Temperature  
Mean Temperature 38 °F 30 °F  
Max Temperature 41 °F 36 °F 66 °F (1982)
Min Temperature 35 °F 24 °F -10 °F (1983)
Degree Days  
Heating Degree Days 27 35  
Month to date heating degree days 714 795  
Since 1 July heating degree days 2048 1890  
Cooling Degree Days 0 0  
Month to date cooling degree days 0 0  
Year to date cooling degree days 657 817  
Moisture  
Dew Point 31 °F    
Average Humidity 74    
Maximum Humidity 82    
Minimum Humidity 65    
Precipitation  
Precipitation 0.01 in 0.10 in 1.83 in (1979)
Month to date precipitation 1.68 2.51  
Year to date precipitation 43.78 38.55  
Snow  
Snow 0.00 in 0.50 in - ()
Month to date snowfall 0.9 10.8  
Since 1 July snowfall 20.3 15.3  
Snow Depth 0.00 in    
Sea Level Pressure  
Sea Level Pressure 30.00 in    
Wind  
Wind Speed 16 mph (SW)    
Max Wind Speed 30 mph    
Max Gust Speed 37 mph    
Visibility 10 miles    
Events Rain    
T = Trace of Precipitation, MM = Missing Value Source: NWS Daily Summary

Daily Weather History Graph

Daily Weather History Graph

Search for Another Location

Airport or City:

Trip Planner

Search our weather history database for the weather conditions in past years. The results will help you decide how hot, cold, wet, or windy it might be!

Date:

Astronomy

Dec. 25, 2014 Rise Set
Actual Time 7:51 AM EST 5:03 PM EST
Civil Twilight 7:20 AM EST 5:34 PM EST
Nautical Twilight 6:45 AM EST 6:09 PM EST
Astronomical Twilight 6:11 AM EST 6:43 PM EST
Moon 10:21 AM EST (12/25) 9:38 PM EST (12/25)
Length of Visible Light 10h 14m
Length of Day
9h 11m
Waxing Crescent, 17% of the Moon is Illuminated
Dec 25
Waxing Crescent
Dec 28
First Quarter
Jan 4
Full
Jan 13
Last Quarter
Jan 20
New

Hourly Weather History & Observations

Time (EST) Temp. Windchill Dew Point Humidity Pressure Visibility Wind Dir Wind Speed Gust Speed Precip Events Conditions
12:51 AM 37.9 °F 27.6 °F 34.0 °F 86% 29.62 in 10.0 mi WSW 20.7 mph 36.8 mph 0.01 in Rain Light Rain
1:09 AM 39.0 °F 29.3 °F 33.1 °F 79% 29.61 in 10.0 mi SW 19.6 mph 27.6 mph 0.00 in   Overcast
1:38 AM 39.0 °F 31.0 °F 33.1 °F 79% 29.62 in 10.0 mi SW 13.8 mph - 0.00 in   Overcast
1:51 AM 39.0 °F 30.3 °F 33.1 °F 79% 29.63 in 10.0 mi WSW 16.1 mph - 0.00 in   Overcast
2:51 AM 39.0 °F 29.6 °F 33.1 °F 79% 29.68 in 10.0 mi WSW 18.4 mph 27.6 mph N/A   Overcast
3:51 AM 39.0 °F 29.9 °F 33.1 °F 79% 29.70 in 8.0 mi WSW 17.3 mph - 0.00 in Rain Light Rain
4:51 AM 37.9 °F 27.3 °F 33.1 °F 83% 29.73 in 10.0 mi WSW 21.9 mph 27.6 mph 0.00 in   Overcast
5:51 AM 37.9 °F 26.3 °F 32.0 °F 79% 29.76 in 10.0 mi West 26.5 mph 31.1 mph 0.00 in   Overcast
6:51 AM 37.9 °F 27.1 °F 32.0 °F 79% 29.81 in 10.0 mi WSW 23.0 mph 29.9 mph N/A   Overcast
7:51 AM 37.9 °F 28.9 °F 32.0 °F 79% 29.86 in 10.0 mi WSW 16.1 mph 25.3 mph N/A   Overcast
8:51 AM 37.9 °F 28.9 °F 32.0 °F 79% 29.90 in 10.0 mi WSW 16.1 mph 25.3 mph N/A   Overcast
9:51 AM 39.0 °F 28.8 °F 33.1 °F 79% 29.96 in 10.0 mi WSW 21.9 mph 31.1 mph N/A   Overcast
10:51 AM 41.0 °F 30.7 °F 32.0 °F 70% 29.99 in 10.0 mi WSW 25.3 mph - N/A   Mostly Cloudy
11:51 AM 39.9 °F 30.5 °F 30.9 °F 70% 30.02 in 10.0 mi WSW 19.6 mph 28.8 mph N/A   Overcast
12:51 PM 41.0 °F 33.1 °F 30.9 °F 67% 30.03 in 10.0 mi SW 15.0 mph - N/A   Overcast
1:51 PM 39.9 °F 31.1 °F 30.9 °F 70% 30.05 in 10.0 mi SW 17.3 mph 25.3 mph N/A   Overcast
2:51 PM 39.0 °F 29.9 °F 30.0 °F 70% 30.09 in 10.0 mi SW 17.3 mph - N/A   Overcast
2:58 PM 39.0 °F 29.9 °F 30.0 °F 70% 30.07 in 10.0 mi WSW 17.3 mph 25.3 mph N/A   Overcast
3:51 PM 39.0 °F 29.6 °F 30.0 °F 70% 30.11 in 10.0 mi WSW 18.4 mph 27.6 mph N/A   Overcast
4:51 PM 37.9 °F 29.6 °F 28.9 °F 70% 30.13 in 10.0 mi WSW 13.8 mph - N/A   Overcast
5:51 PM 37.9 °F 30.9 °F 30.0 °F 73% 30.16 in 10.0 mi SW 10.4 mph - N/A   Overcast
6:40 PM 37.9 °F 30.9 °F 30.0 °F 73% 30.16 in 10.0 mi WSW 10.4 mph - N/A   Overcast
6:47 PM 37.4 °F 30.3 °F 30.2 °F 75% 30.16 in 10.0 mi WSW 10.4 mph - N/A   Overcast
6:51 PM 37.9 °F 32.1 °F 30.0 °F 73% 30.18 in 10.0 mi WSW 8.1 mph - N/A   Overcast
7:24 PM 37.9 °F 31.5 °F 30.0 °F 73% 30.18 in 10.0 mi WSW 9.2 mph - N/A   Overcast
7:49 PM 37.4 °F 32.1 °F 30.2 °F 75% 30.18 in 10.0 mi SW 6.9 mph - N/A   Overcast
7:51 PM 37.9 °F 32.7 °F 30.0 °F 73% 30.20 in 10.0 mi SSW 6.9 mph - N/A   Overcast
8:09 PM 37.9 °F 32.1 °F 30.0 °F 73% 30.19 in 10.0 mi SW 8.1 mph - N/A   Overcast
8:43 PM 37.9 °F 30.9 °F 30.0 °F 73% 30.20 in 10.0 mi SW 10.4 mph - N/A   Overcast
8:51 PM 37.9 °F 32.1 °F 30.0 °F 73% 30.22 in 10.0 mi SW 8.1 mph - N/A   Overcast
9:51 PM 37.9 °F 30.9 °F 28.9 °F 70% 30.22 in 10.0 mi SW 10.4 mph - N/A   Overcast
10:19 PM 37.0 °F 32.4 °F 28.0 °F 70% 30.19 in 10.0 mi SW 5.8 mph - N/A   Mostly Cloudy
10:36 PM 37.0 °F 31.6 °F 28.0 °F 70% 30.20 in 10.0 mi SW 6.9 mph - N/A   Mostly Cloudy
10:51 PM 37.0 °F 31.0 °F 28.0 °F 70% 30.22 in 10.0 mi SSW 8.1 mph - N/A   Mostly Cloudy
11:34 PM 36.0 °F 29.0 °F 28.0 °F 73% 30.20 in 10.0 mi SSW 9.2 mph - N/A   Mostly Cloudy
11:51 PM 36.0 °F 29.0 °F 28.0 °F 73% 30.22 in 10.0 mi SSW 9.2 mph - N/A   Mostly Cloudy